W7KKE-3 Weather Reports


Display with metric or nautical units.
time (UTC)temp
F
wind
direction
speed
MPH
gust
MPH
rain 1hr
in
rain 24hr
in
rain mn
in
humidity
%
barometer
mb
20150401142003 45 106 0.0 3.0 0.03 0.10 0.06 94 1028.1
20150401141504 45 71 0.0 7.0 0.03 0.10 0.05 94 1028.1
20150401141003 45 49 0.0 7.0 0.00 0.10 0.03 94 1027.9
20150401140503 45 92 0.0 7.0 0.00 0.10 0.02 94 1027.9
20150401140003 45 0 0.0 0.0 0.00 0.10 0.01 94 1027.8
20150401135506 45 0 0.0 0.0 0.00 0.10 0.01 94 1027.7
20150401135003 45 0 0.0 5.0 0.00 0.10 0.01 94 1027.6
20150401134503 44 168 0.0 5.0 0.00 0.10 0.01 94 1027.5
20150401134003 45 117 0.0 5.0 0.00 0.10 0.01 94 1027.5
20150401133503 45 0 0.0 5.0 0.00 0.10 0.01 94 1027.5
20150401133004 45 0 0.0 5.0 0.00 0.10 0.01 94 1027.5
20150401132507 45 99 0.0 5.0 0.00 0.10 0.01 94 1027.4
20150401132003 45 0 0.0 0.0 0.00 0.10 0.01 94 1027.4
20150401131503 45 0 0.0 7.0 0.00 0.10 0.01 94 1027.5
20150401131003 45 0 0.0 7.0 0.00 0.10 0.01 94 1027.5
20150401130503 45 89 0.0 7.0 0.00 0.10 0.01 94 1027.4
20150401130003 45 110 3.0 7.0 0.00 0.11 0.01 94 1027.4
20150401125503 45 77 3.0 5.0 0.00 0.11 0.01 94 1027.4
20150401125003 45 0 1.0 5.0 0.00 0.11 0.01 94 1027.4
20150401124504 45 70 0.0 5.0 0.00 0.11 0.01 93 1027.2
20150401124003 45 79 1.0 4.0 0.00 0.11 0.01 93 1027.3
20150401123503 45 85 1.0 4.0 0.00 0.11 0.01 94 1027.2
20150401123003 45 0 0.0 0.0 0.00 0.11 0.01 94 1027.2
20150401122503 45 0 0.0 6.0 0.00 0.11 0.01 94 1027.2
20150401122003 45 105 0.0 6.0 0.00 0.11 0.01 93 1027.2
20150401121503 45 117 2.0 6.0 0.00 0.11 0.01 93 1027.1
20150401121004 44 78 0.0 6.0 0.00 0.11 0.01 93 1027.2
20150401120503 45 120 3.0 6.0 0.00 0.11 0.01 93 1027.2
20150401120003 45 28 0.0 5.0 0.00 0.11 0.01 93 1027.2
20150401115503 45 77 0.0 5.0 0.00 0.11 0.01 93 1027.1
20150401115003 45 71 0.0 5.0 0.00 0.11 0.01 93 1027.1
20150401114503 45 95 0.0 5.0 0.00 0.11 0.01 93 1027.2
20150401114003 45 0 1.0 3.0 0.01 0.11 0.01 93 1027.1
20150401113504 45 28 0.0 3.0 0.01 0.11 0.01 92 1027.1
20150401113003 45 0 0.0 0.0 0.01 0.11 0.01 92 1027.1
20150401112507 45 0 0.0 0.0 0.01 0.11 0.01 92 1027.1
20150401112003 45 0 0.0 0.0 0.01 0.11 0.01 92 1027.1
20150401111503 45 0 0.0 0.0 0.01 0.11 0.01 92 1027.1
20150401111003 46 0 0.0 0.0 0.01 0.11 0.01 92 1027.1
20150401110503 46 0 0.0 0.0 0.01 0.11 0.01 92 1027.1
20150401110003 46 0 0.0 6.0 0.01 0.10 0.01 92 1027.1
20150401105503 46 92 2.0 6.0 0.01 0.10 0.01 92 1026.9
20150401105003 46 116 4.0 6.0 0.01 0.10 0.01 92 1026.9
20150401104503 46 88 2.0 6.0 0.01 0.10 0.01 92 1027.1
20150401104003 46 109 1.0 6.0 0.00 0.10 0.00 91 1027.1
20150401103503 46 117 1.0 5.0 0.00 0.10 0.00 91 1026.9
20150401103003 46 85 0.0 5.0 0.00 0.10 0.00 91 1026.8
20150401102503 46 74 1.0 4.0 0.00 0.10 0.00 91 1026.7
20150401102003 46 67 0.0 6.0 0.00 0.10 0.00 91 1026.7
20150401101503 46 75 0.0 6.0 0.00 0.10 0.00 91 1026.7
20150401101003 46 82 0.0 6.0 0.00 0.10 0.00 90 1026.8
20150401100503 47 0 0.0 4.0 0.00 0.10 0.00 90 1026.8
20150401100003 47 75 0.0 4.0 0.00 0.10 0.00 90 1026.8
20150401095505 47 92 0.0 4.0 0.00 0.10 0.00 90 1026.8
20150401095003 47 92 0.0 6.0 0.00 0.10 0.00 90 1026.8
20150401093503 47 65 2.0 6.0 0.00 0.10 0.00 90 1026.8
20150401092003 47 44 0.0 5.0 0.00 0.10 0.00 90 1026.8
20150401091503 47 121 0.0 5.0 0.00 0.10 0.00 90 1026.8
20150401091003 47 0 0.0 0.0 0.00 0.10 0.00 90 1026.9
20150401090503 47 0 0.0 0.0 0.00 0.10 0.00 90 1026.8
20150401090003 47 0 0.0 5.0 0.00 0.11 0.00 90 1026.8
20150401085503 47 0 0.0 5.0 0.00 0.11 0.00 89 1026.7
20150401085003 47 72 0.0 5.0 0.00 0.11 0.00 89 1026.6
20150401084503 47 105 2.0 8.0 0.00 0.11 0.00 89 1026.7
20150401084003 47 102 6.0 8.0 0.00 0.11 0.00 88 1026.6
20150401083503 47 107 2.0 8.0 0.00 0.11 0.00 88 1026.6
20150401083003 47 81 2.0 7.0 0.00 0.11 0.00 87 1026.5
20150401082503 48 64 4.0 7.0 0.00 0.11 0.00 87 1026.6
20150401082003 47 197 5.0 9.0 0.00 0.11 0.00 86 1026.5
20150401081503 47 214 3.0 9.0 0.00 0.11 0.00 85 1026.5
20150401080003 47 99 5.0 5.0 0.00 0.12 0.00 87 1026.3
20150401074503 48 75 3.0 6.0 0.00 0.12 0.00 86 1026.2
20150401074004 48 60 5.0 6.0 0.00 0.12 0.00 85 1026.2
20150401073503 48 93 4.0 6.0 0.00 0.12 0.00 84 1026.2
20150401073003 49 81 4.0 6.0 0.00 0.12 0.00 84 1026.0
20150401072503 49 280 0.0 5.0 0.00 0.12 0.00 83 1026.0
20150401072003 49 264 2.0 9.0 0.00 0.12 0.00 82 1026.0
20150401071503 50 319 1.0 9.0 0.00 0.12 0.00 82 1026.1
20150401071003 50 284 2.0 9.0 0.00 0.12 0.00 81 1026.0
20150401070503 50 280 6.0 9.0 0.00 0.12 0.00 82 1026.0
20150401070003 50 274 4.0 8.0 0.00 0.19 0.00 82 1026.0
20150401065503 50 287 0.0 7.0 0.00 0.19 0.12 81 1026.0
20150401065003 51 267 0.0 7.0 0.00 0.19 0.12 80 1026.0
20150401064503 51 299 2.0 7.0 0.00 0.19 0.12 80 1025.9
20150401064003 51 295 0.0 9.0 0.00 0.19 0.12 80 1025.9
20150401062505 51 301 7.0 9.0 0.00 0.19 0.12 80 1025.9
20150401062003 51 305 5.0 10.0 0.00 0.19 0.12 80 1025.7
20150401061503 51 303 6.0 10.0 0.00 0.19 0.12 80 1025.7
20150401061003 51 309 7.0 10.0 0.00 0.19 0.12 80 1025.8
20150401060503 51 316 7.0 11.0 0.00 0.19 0.12 81 1025.7
20150401060003 51 285 8.0 11.0 0.00 0.24 0.12 80 1025.7
20150401055504 51 263 5.0 11.0 0.00 0.24 0.12 80 1025.8
20150401055003 51 273 6.0 11.0 0.00 0.24 0.12 80 1025.8
20150401054503 51 287 7.0 11.0 0.00 0.24 0.12 80 1025.7
20150401054003 51 282 6.0 11.0 0.00 0.24 0.12 80 1025.6
20150401053503 51 288 7.0 11.0 0.00 0.24 0.12 79 1025.6
20150401053004 51 288 6.0 11.0 0.00 0.24 0.12 79 1025.6
20150401052504 51 319 6.0 13.0 0.00 0.24 0.12 79 1025.6
20150401052003 51 280 7.0 13.0 0.00 0.24 0.12 80 1025.6
20150401051503 51 278 7.0 13.0 0.00 0.24 0.12 80 1025.5
20150401051003 51 278 8.0 12.0 0.00 0.24 0.12 80 1025.6
20150401050503 51 278 7.0 12.0 0.00 0.24 0.12 80 1025.5
20150401050003 51 296 6.0 12.0 0.00 0.28 0.12 80 1025.4
20150401044003 51 281 6.0 11.0 0.00 0.28 0.12 81 1025.3
20150401043503 51 278 6.0 11.0 0.00 0.28 0.12 81 1025.2
20150401043003 51 306 5.0 9.0 0.00 0.28 0.12 81 1025.2
20150401042503 51 305 6.0 11.0 0.00 0.28 0.12 81 1025.1
20150401042003 51 308 6.0 11.0 0.00 0.28 0.12 81 1025.1
20150401041503 51 327 7.0 11.0 0.00 0.28 0.12 81 1025.1
20150401041003 52 326 7.0 13.0 0.00 0.28 0.12 81 1025.0
20150401040503 52 315 8.0 13.0 0.00 0.28 0.12 81 1025.0
20150401040003 51 275 8.0 13.0 0.00 0.28 0.12 81 1025.0
20150401035503 51 284 8.0 13.0 0.00 0.28 0.12 81 1024.9
20150401035003 51 274 7.0 13.0 0.00 0.28 0.12 81 1024.9
20150401034503 51 260 7.0 13.0 0.00 0.28 0.12 82 1024.9
20150401034003 51 278 7.0 11.0 0.00 0.28 0.12 82 1024.8
20150401033503 51 268 7.0 11.0 0.00 0.28 0.12 82 1024.7
20150401033003 51 282 8.0 11.0 0.01 0.28 0.12 81 1024.7
20150401032503 51 299 6.0 9.0 0.01 0.28 0.12 81 1024.6
20150401032003 51 308 6.0 13.0 0.01 0.28 0.12 80 1024.6
20150401030003 51 274 7.0 11.0 0.01 0.27 0.12 82 1024.3
20150401025503 51 245 6.0 11.0 0.01 0.27 0.12 81 1024.3
20150401025003 51 292 7.0 19.0 0.01 0.27 0.12 80 1024.3
20150401024504 52 274 8.0 19.0 0.01 0.27 0.12 81 1024.3
20150401024003 52 263 8.0 19.0 0.01 0.27 0.12 80 1024.3
20150401023503 52 266 9.0 16.0 0.01 0.27 0.12 81 1024.3
20150401023003 52 253 8.0 14.0 0.00 0.27 0.11 79 1024.2
20150401022503 52 264 9.0 14.0 0.00 0.27 0.11 80 1024.3
20150401022003 52 282 7.0 14.0 0.00 0.27 0.11 80 1024.2
20150401021504 52 285 7.0 14.0 0.00 0.27 0.11 80 1024.2
20150401021003 52 291 6.0 14.0 0.00 0.27 0.11 80 1024.1
20150401020503 52 254 5.0 11.0 0.00 0.27 0.11 80 1024.1
20150401020003 52 273 7.0 9.0 0.00 0.27 0.11 80 1024.1
20150401015505 52 275 4.0 8.0 0.00 0.27 0.11 80 1024.2
20150401015003 52 282 5.0 13.0 0.00 0.27 0.11 80 1024.2
20150401014503 52 268 6.0 13.0 0.00 0.27 0.11 80 1024.2
20150401014003 53 281 7.0 13.0 0.00 0.27 0.11 80 1024.3
20150401013503 53 289 6.0 12.0 0.00 0.27 0.11 80 1024.2
20150401013003 53 280 8.0 12.0 0.02 0.27 0.11 80 1024.3
20150401012503 53 284 7.0 11.0 0.02 0.27 0.11 80 1024.3
20150401012003 54 280 6.0 15.0 0.02 0.27 0.11 80 1024.3
20150401011503 54 301 7.0 15.0 0.02 0.27 0.11 80 1024.2
20150401011003 54 288 10.0 15.0 0.02 0.27 0.11 80 1024.2
20150401010503 54 270 10.0 14.0 0.02 0.27 0.11 80 1024.2
20150401010003 54 235 9.0 14.0 0.02 0.25 0.11 81 1024.2
20150401005503 53 257 9.0 14.0 0.02 0.25 0.11 81 1024.2
20150401005003 53 273 8.0 13.0 0.02 0.25 0.11 82 1024.2
20150401004503 53 278 8.0 12.0 0.02 0.25 0.11 81 1024.3
20150401004003 53 291 7.0 9.0 0.02 0.25 0.11 80 1024.3
20150401003503 53 274 3.0 21.0 0.02 0.25 0.11 79 1024.3
20150401003003 54 294 4.0 21.0 0.00 0.25 0.11 77 1024.2
20150401002503 55 260 11.0 21.0 0.00 0.25 0.09 75 1024.5
20150401002003 55 268 9.0 15.0 0.00 0.25 0.09 75 1024.1
20150401001503 56 270 10.0 15.0 0.00 0.25 0.09 74 1024.2
20150401001003 56 267 11.0 16.0 0.00 0.25 0.09 74 1024.2
20150401000503 56 274 11.0 16.0 0.00 0.25 0.09 74 1024.3
20150401000003 56 273 10.0 16.0 0.00 0.25 0.09 74 1024.1
20150331235504 55 270 9.0 15.0 0.00 0.25 0.09 76 1024.2
20150331235003 55 266 10.0 15.0 0.00 0.25 0.09 77 1024.2
20150331234503 55 264 5.0 18.0 0.00 0.25 0.09 77 1024.3
20150331234003 55 247 9.0 18.0 0.00 0.25 0.09 76 1024.3
20150331233503 55 274 9.0 18.0 0.00 0.25 0.09 75 1024.4
20150331233003 56 273 12.0 14.0 0.00 0.25 0.09 76 1024.4
20150331232503 56 275 6.0 14.0 0.00 0.25 0.09 75 1024.5
20150331232003 56 280 8.0 14.0 0.00 0.25 0.09 74 1024.6
20150331231503 57 245 4.0 14.0 0.00 0.25 0.09 74 1024.7
20150331231003 57 260 9.0 12.0 0.00 0.25 0.09 73 1024.7
20150331230503 57 288 6.0 13.0 0.00 0.25 0.09 73 1024.8
20150331230003 57 260 9.0 13.0 0.00 0.25 0.09 72 1024.8
20150331225503 58 270 5.0 13.0 0.00 0.25 0.09 73 1024.7
20150331225003 57 280 8.0 13.0 0.00 0.25 0.09 73 1024.7
20150331224503 57 253 9.0 13.0 0.00 0.25 0.09 74 1024.6
20150331224002 57 266 8.0 13.0 0.00 0.25 0.09 74 1024.6
20150331223502 57 228 8.0 13.0 0.00 0.25 0.09 73 1024.5
20150331223003 57 281 9.0 15.0 0.00 0.25 0.09 74 1024.5
20150331222505 57 263 11.0 15.0 0.00 0.25 0.09 73 1024.4
20150331222002 57 247 9.0 15.0 0.00 0.25 0.09 74 1024.3
20150331221502 57 275 7.0 14.0 0.00 0.25 0.09 74 1024.2
20150331221002 57 267 9.0 14.0 0.00 0.25 0.09 75 1024.1
20150331220503 56 278 8.0 14.0 0.00 0.25 0.09 75 1024.1
20150331220004 56 267 10.0 14.0 0.00 0.25 0.09 75 1024.0
20150331215504 57 242 8.0 17.0 0.00 0.25 0.09 74 1024.0
20150331215003 57 242 10.0 17.0 0.00 0.25 0.09 75 1024.0
20150331214504 57 268 10.0 17.0 0.00 0.25 0.09 75 1023.9
20150331214004 57 254 6.0 14.0 0.00 0.25 0.09 77 1023.8
20150331213503 57 253 7.0 14.0 0.00 0.25 0.09 76 1023.8
20150331213002 56 267 6.0 14.0 0.00 0.25 0.09 77 1023.7
20150331212504 56 274 8.0 13.0 0.00 0.25 0.09 78 1023.6
20150331212002 56 289 7.0 13.0 0.00 0.25 0.09 78 1023.5
20150331211503 55 278 6.0 13.0 0.00 0.25 0.09 79 1023.5
20150331211004 55 271 5.0 13.0 0.00 0.25 0.09 79 1023.6
20150331210502 54 242 7.0 13.0 0.00 0.25 0.09 80 1023.5
20150331210004 54 268 6.0 12.0 0.00 0.25 0.09 80 1023.6
20150331205502 54 274 8.0 13.0 0.00 0.25 0.09 79 1023.5
20150331205004 54 270 9.0 13.0 0.00 0.25 0.09 81 1023.5
20150331204503 54 245 8.0 13.0 0.00 0.25 0.09 81 1023.5
20150331204004 54 240 8.0 15.0 0.00 0.25 0.09 81 1023.4
20150331203504 54 242 9.0 15.0 0.00 0.25 0.09 82 1023.5
20150331203002 54 271 8.0 15.0 0.00 0.25 0.09 81 1023.5
20150331202004 54 308 7.0 14.0 0.00 0.25 0.09 84 1023.4
20150331201503 54 271 9.0 14.0 0.00 0.25 0.09 83 1023.4
20150331200002 54 261 10.0 18.0 0.00 0.25 0.09 84 1023.3
20150331195502 54 277 11.0 19.0 0.00 0.25 0.09 86 1023.3
20150331195004 53 271 9.0 19.0 0.00 0.25 0.09 87 1023.3
20150331194503 53 253 12.0 19.0 0.00 0.25 0.09 87 1023.3
20150331194002 52 254 8.0 16.0 0.00 0.25 0.09 90 1023.3
20150331193504 51 267 11.0 16.0 0.00 0.25 0.09 89 1023.2
20150331193002 51 233 6.0 15.0 0.00 0.25 0.09 89 1023.1
20150331192502 51 246 6.0 14.0 0.00 0.25 0.09 90 1023.1
20150331192002 51 275 7.0 9.0 0.00 0.25 0.09 91 1023.1
20150331191504 51 141 3.0 9.0 0.00 0.25 0.09 91 1023.1
20150331191004 51 149 1.0 8.0 0.00 0.25 0.09 91 1023.0
20150331190504 50 117 3.0 6.0 0.00 0.25 0.09 91 1023.0
20150331190002 50 138 3.0 7.0 0.00 0.25 0.09 91 1023.0
20150331182502 50 0 0.0 5.0 0.02 0.25 0.09 91 1022.7
20150331182003 50 72 0.0 5.0 0.03 0.25 0.09 90 1022.6
20150331181502 50 60 1.0 5.0 0.03 0.25 0.09 90 1022.5
20150331181002 50 0 0.0 0.0 0.05 0.25 0.09 90 1022.5
20150331180502 50 0 0.0 0.0 0.05 0.25 0.09 91 1022.4
20150331180002 50 0 0.0 0.0 0.06 0.20 0.09 91 1022.4
20150331175502 50 0 0.0 0.0 0.06 0.20 0.09 91 1022.3
20150331175002 50 0 0.0 0.0 0.05 0.20 0.09 91 1022.3
20150331174502 50 0 0.0 0.0 0.05 0.20 0.08 91 1022.2
20150331174002 49 88 0.0 8.0 0.05 0.20 0.08 90 1022.2
20150331173502 49 102 0.0 8.0 0.05 0.20 0.08 89 1022.2
20150331173002 50 303 0.0 8.0 0.04 0.20 0.08 89 1022.1
20150331172504 50 310 5.0 6.0 0.04 0.20 0.07 89 1022.2
20150331172002 50 0 0.0 13.0 0.03 0.20 0.06 89 1021.9
20150331170502 50 162 8.0 13.0 0.01 0.20 0.04 88 1021.7
20150331170002 50 344 0.0 12.0 0.00 0.19 0.03 87 1021.7
20150331165503 50 308 1.0 12.0 0.00 0.19 0.03 88 1021.5
20150331165002 50 343 6.0 12.0 0.00 0.19 0.03 88 1021.3
20150331164502 50 345 5.0 12.0 0.00 0.19 0.03 87 1021.2
20150331164002 50 312 8.0 19.0 0.00 0.19 0.03 87 1021.2
20150331163502 50 315 9.0 19.0 0.00 0.19 0.03 86 1021.2
20150331163002 50 302 12.0 19.0 0.00 0.19 0.03 87 1021.1
20150331162502 50 267 7.0 14.0 0.00 0.19 0.03 86 1021.1
20150331162002 50 292 8.0 13.0 0.00 0.19 0.03 87 1020.8
20150331161002 50 275 5.0 12.0 0.00 0.19 0.03 88 1020.7
20150331160502 50 298 6.0 12.0 0.00 0.19 0.03 89 1020.5
20150331160002 50 294 8.0 12.0 0.00 0.19 0.03 90 1020.5
20150331155502 50 273 1.0 9.0 0.00 0.19 0.03 90 1020.4
20150331155002 50 322 0.0 9.0 0.00 0.19 0.03 90 1020.4
20150331154502 50 268 5.0 9.0 0.00 0.19 0.03 90 1020.3
20150331154002 50 281 1.0 6.0 0.00 0.19 0.03 90 1020.3
20150331153502 49 288 0.0 5.0 0.00 0.19 0.03 90 1020.3
20150331153002 49 288 1.0 5.0 0.00 0.19 0.03 90 1020.3
20150331152503 49 0 0.0 0.0 0.00 0.19 0.03 90 1020.2
20150331152002 49 0 0.0 0.0 0.00 0.19 0.03 90 1020.2
20150331151503 49 0 0.0 0.0 0.00 0.19 0.03 89 1020.1
20150331151002 49 0 0.0 0.0 0.00 0.19 0.03 89 1020.1
20150331145005 50 310 1.0 7.0 0.00 0.19 0.03 87 1020.0
20150331144503 50 274 0.0 7.0 0.00 0.19 0.03 87 1019.9
20150331144003 50 266 2.0 6.0 0.00 0.19 0.03 87 1020.0
20150331143503 50 292 4.0 10.0 0.00 0.19 0.03 87 1019.9
20150331143003 50 312 2.0 10.0 0.00 0.19 0.03 87 1019.9